Zurück zum Katalog

STARLINK-37442

AktivKommunikationSSO
NORAD 68811·PAYLOAD·🇺🇸 United States

Gestartet Apr 23, 2026 von Vandenberg Space Force Base

Loading…

Nächste Überflüge (nächste 24 Stunden)

TLE

AktuellSource: CelesTrak SupGP

Epoche: Sep 15, 2026, 03:25 UTC

1 68811C 26089K   26258.14284722 -.00037590  00000+0 -11666-2 0  2587
2 68811  97.2854 103.9639 0001946  88.7988  28.7535 15.33464550    17

Verfolge STARLINK-37442 in Echtzeit mit AllMySat

Download on the App Store